.
WxDataArchive / Data Records for 2015-10-04
2015-10-03 October 2015 2015-10-05

Data Records for Sunday, 04 October 2015

Time	Temp	Chill	HIndex	Humid	Dewpt	 Wind 	HiWind	WindDir	Rain 	Barom
-----	----	-----	------	-----	-----	------	------	-------	-----	-----
00:00	48.0	48.0	48.0	95	46.6	1	7	112	0.00	30.109 
00:05	48.0	48.0	48.0	95	46.6	1	4	112	0.00	30.109 
00:10	48.2	48.2	48.2	95	46.8	1	4	112	0.00	30.109 
00:15	48.2	48.2	48.2	96	47.1	1	3	90	0.00	30.112 
00:20	48.2	48.2	48.2	95	46.8	1	5	90	0.00	30.112 
00:25	48.2	48.2	48.2	96	47.1	1	3	90	0.00	30.112 
00:30	48.2	48.2	48.2	95	46.8	1	3	90	0.00	30.115 
00:35	48.3	48.3	48.3	96	47.2	1	3	45	0.00	30.115 
00:40	48.3	48.3	48.3	96	47.2	0	3	45	0.00	30.115 
00:45	48.3	48.3	48.3	96	47.2	1	4	90	0.00	30.109 
00:50	48.5	48.5	48.5	96	47.4	1	4	90	0.00	30.109 
00:55	48.5	48.5	48.5	96	47.4	1	5	90	0.00	30.109 
01:00	48.5	48.5	48.5	96	47.4	0	2	90	0.00	30.105 
01:05	48.5	48.5	48.5	96	47.4	1	5	90	0.00	30.105 
01:10	48.6	48.6	48.6	96	47.5	0	1	90	0.00	30.105 
01:15	48.6	48.6	48.6	96	47.5	1	4	90	0.00	30.107 
01:20	48.6	48.6	48.6	96	47.5	0	4	90	0.00	30.107 
01:25	48.8	48.8	48.8	96	47.7	2	5	90	0.00	30.107 
01:30	48.8	48.8	48.8	96	47.7	2	7	135	0.00	30.105 
01:35	48.8	48.8	48.8	96	47.7	2	6	112	0.00	30.105 
01:40	48.8	48.8	48.8	96	47.7	1	6	90	0.00	30.105 
01:45	48.9	48.9	48.9	96	47.8	1	5	90	0.00	30.102 
01:50	48.9	48.9	48.9	96	47.8	1	4	90	0.00	30.102 
01:55	48.9	48.9	48.9	96	47.8	0	3	90	0.00	30.102 
02:00	48.9	48.9	48.9	96	47.8	2	6	90	0.00	30.106 
02:05	49.1	49.1	49.1	96	48.0	0	3	90	0.00	30.106 
02:10	49.1	49.1	49.1	96	48.0	1	4	90	0.00	30.106 
02:15	49.1	49.1	49.1	96	48.0	0	3	90	0.00	30.111 
02:20	49.1	49.1	49.1	96	48.0	0	2	90	0.01	30.111 
02:25	49.2	49.2	49.2	96	48.1	0	4	90	0.00	30.111 
02:30	49.2	49.2	49.2	96	48.1	1	4	90	0.00	30.112 
02:35	49.2	49.2	49.2	96	48.1	0	5	90	0.00	30.112 
02:40	49.2	49.2	49.2	96	48.1	1	3	90	0.00	30.112 
02:45	49.2	49.2	49.2	96	48.1	0	3	90	0.00	30.111 
02:50	49.4	49.4	49.4	96	48.3	0	2	90	0.00	30.111 
02:55	49.4	49.4	49.4	96	48.3	0	3	90	0.00	30.111 
03:00	49.4	49.4	49.4	96	48.3	0	5	90	0.00	30.114 
03:05	49.4	49.4	49.4	96	48.3	0	2	90	0.00	30.114 
03:10	49.4	49.4	49.4	96	48.3	1	4	90	0.00	30.114 
03:15	49.4	49.4	49.4	96	48.3	1	6	90	0.00	30.112 
03:20	49.5	49.5	49.5	96	48.4	1	4	90	0.00	30.112 
03:25	49.5	49.5	49.5	96	48.4	1	5	90	0.00	30.112 
03:30	49.5	49.5	49.5	96	48.4	1	5	90	0.00	30.108 
03:35	49.5	49.5	49.5	96	48.4	1	4	90	0.00	30.108 
03:40	49.5	49.5	49.5	96	48.4	2	9	90	0.00	30.108 
03:45	49.5	49.5	49.5	96	48.4	1	4	112	0.00	30.103 
03:50	49.5	49.5	49.5	96	48.4	2	5	90	0.00	30.103 
03:55	49.5	49.5	49.5	96	48.4	2	6	112	0.00	30.103 
04:00	49.5	49.5	49.5	96	48.4	1	4	90	0.00	30.101 
04:05	49.6	49.6	49.6	96	48.5	1	5	90	0.00	30.101 
04:10	49.6	49.6	49.6	96	48.5	0	2	90	0.00	30.101 
04:15	49.6	49.6	49.6	96	48.5	1	5	90	0.00	30.103 
04:20	49.8	49.8	49.8	96	48.7	1	4	90	0.00	30.103 
04:25	49.8	49.8	49.8	96	48.7	1	5	112	0.00	30.103 
04:30	49.8	49.8	49.8	96	48.7	1	4	112	0.00	30.103 
04:35	49.8	49.8	49.8	96	48.7	1	5	90	0.00	30.103 
04:40	49.8	49.8	49.8	96	48.7	1	3	68	0.01	30.103 
04:45	49.9	49.9	49.9	96	48.8	1	4	68	0.00	30.103 
04:50	49.9	49.9	49.9	96	48.8	1	4	90	0.00	30.103 
04:55	49.9	49.9	49.9	96	48.8	1	4	90	0.00	30.103 
05:00	49.9	49.9	49.9	96	48.8	0	2	90	0.00	30.107 
05:05	49.9	49.9	49.9	96	48.8	1	4	90	0.00	30.107 
05:10	49.9	49.9	49.9	96	48.8	0	2	90	0.00	30.107 
05:15	50.1	50.1	50.1	96	49.0	0	2	90	0.00	30.106 
05:20	50.1	50.1	50.1	96	49.0	1	3	90	0.00	30.106 
05:25	50.1	50.1	50.1	96	49.0	0	3	90	0.00	30.106 
05:30	50.1	50.1	50.1	96	49.0	0	3	90	0.00	30.102 
05:35	50.1	50.1	50.1	96	49.0	0	3	90	0.00	30.102 
05:40	50.1	50.1	50.1	96	49.0	0	3	90	0.00	30.102 
05:45	50.1	50.1	50.1	96	49.0	2	5	90	0.00	30.106 
05:50	50.1	50.1	50.1	96	49.0	0	3	90	0.00	30.106 
05:55	50.1	50.1	50.1	96	49.0	1	4	90	0.00	30.106 
06:00	50.2	50.2	50.2	96	49.1	1	3	90	0.00	30.104 
06:05	50.2	50.2	50.2	96	49.1	1	4	90	0.00	30.104 
06:10	50.2	50.2	50.2	96	49.1	1	4	90	0.00	30.104 
06:15	50.2	50.2	50.2	96	49.1	0	2	90	0.00	30.107 
06:20	50.4	50.4	50.4	96	49.3	0	4	90	0.00	30.107 
06:25	50.4	50.4	50.4	96	49.3	1	4	90	0.00	30.107 
06:30	50.4	50.4	50.4	96	49.3	1	3	90	0.00	30.112 
06:35	50.4	50.4	50.4	96	49.3	1	4	90	0.00	30.112 
06:40	50.4	50.4	50.4	96	49.3	1	4	90	0.00	30.112 
06:45	50.4	50.4	50.4	96	49.3	1	3	90	0.00	30.109 
06:50	50.5	50.5	50.5	96	49.4	0	3	90	0.00	30.109 
06:55	50.5	50.5	50.5	96	49.4	1	3	90	0.00	30.109 
07:00	50.5	50.5	50.5	96	49.4	0	1	90	0.00	30.115 
07:05	50.7	50.7	50.7	96	49.6	0	3	90	0.00	30.115 
07:10	50.7	50.7	50.7	96	49.6	0	1	90	0.00	30.115 
07:15	50.7	50.7	50.7	96	49.6	1	5	90	0.00	30.118 
07:20	50.8	50.8	50.8	96	49.7	1	4	90	0.00	30.118 
07:25	50.8	50.8	50.8	96	49.7	1	4	90	0.00	30.118 
07:30	50.8	50.8	50.8	96	49.7	0	3	90	0.00	30.117 
07:35	51.0	51.0	51.0	96	49.9	0	3	90	0.00	30.117 
07:40	51.0	51.0	51.0	96	49.9	1	5	90	0.00	30.117 
07:45	51.0	51.0	51.0	96	49.9	0	3	90	0.00	30.118 
07:50	51.1	51.1	51.1	96	50.0	0	2	90	0.00	30.118 
07:55	51.1	51.1	51.1	96	50.0	1	3	90	0.00	30.118 
08:00	51.3	51.3	51.3	96	50.2	0	2	90	0.00	30.124 
08:05	51.3	51.3	51.3	96	50.2	1	3	90	0.00	30.124 
08:10	51.3	51.3	51.3	96	50.2	0	3	90	0.00	30.124 
08:15	51.4	51.4	51.4	96	50.3	0	2	90	0.00	30.132 
08:20	51.6	51.6	51.6	96	50.5	0	2	90	0.00	30.132 
08:25	51.6	51.6	51.6	96	50.5	0	3	90	0.00	30.132 
08:30	51.7	51.7	51.7	96	50.6	0	3	90	0.00	30.132 
08:35	51.9	51.9	51.9	96	50.8	1	4	90	0.00	30.132 
08:40	52.0	52.0	52.0	96	50.9	0	2	90	0.00	30.132 
08:45	52.0	52.0	52.0	96	50.9	0	3	90	0.00	30.132 
08:50	52.2	52.2	52.2	96	51.1	1	4	68	0.00	30.132 
08:55	52.3	52.3	52.3	96	51.2	1	7	90	0.00	30.132 
09:00	52.3	52.3	52.3	96	51.2	2	5	112	0.00	30.133 
09:05	52.3	52.3	52.3	96	51.2	3	7	112	0.00	30.133 
09:10	52.5	52.5	52.5	96	51.4	2	6	90	0.00	30.133 
09:15	52.5	52.5	52.5	96	51.4	2	5	90	0.00	30.131 
09:20	52.6	52.6	52.6	95	51.2	2	9	90	0.00	30.131 
09:25	52.6	52.6	52.6	95	51.2	2	6	90	0.00	30.131 
09:30	52.8	52.8	52.8	95	51.4	3	6	90	0.00	30.134 
09:35	52.8	52.8	52.8	95	51.4	1	4	45	0.00	30.134 
09:40	52.9	52.9	52.9	95	51.5	2	6	90	0.00	30.134 
09:45	53.1	53.1	53.1	95	51.7	1	6	90	0.00	30.140 
09:50	53.1	53.1	53.1	94	51.4	3	7	90	0.00	30.140 
09:55	53.2	53.2	53.2	94	51.5	1	5	90	0.00	30.140 
10:00	53.5	53.5	53.5	94	51.8	1	4	90	0.00	30.142 
10:05	53.6	53.6	53.6	93	51.6	2	6	90	0.00	30.142 
10:10	53.8	53.8	53.8	93	51.8	1	11	90	0.00	30.142 
10:15	54.1	54.1	54.1	93	52.1	2	6	90	0.00	30.134 
10:20	54.2	54.2	54.2	92	51.9	2	9	112	0.00	30.134 
10:25	54.4	54.4	54.4	92	52.1	2	6	90	0.00	30.134 
10:30	54.5	54.5	54.5	91	51.9	2	7	112	0.00	30.132 
10:35	54.7	54.7	54.7	90	51.8	3	10	90	0.00	30.132 
10:40	55.0	55.0	55.0	90	52.1	2	7	90	0.00	30.132 
10:45	55.1	55.1	55.1	89	51.9	3	6	112	0.00	30.136 
10:50	55.3	55.3	55.3	88	51.8	3	7	90	0.00	30.136 
10:55	55.6	55.6	55.6	87	51.8	3	6	90	0.00	30.136 
11:00	55.7	55.7	55.7	86	51.6	3	6	90	0.00	30.140 
11:05	56.2	56.2	56.2	87	52.4	1	5	90	0.00	30.140 
11:10	56.6	56.6	56.6	85	52.1	2	4	90	0.00	30.140 
11:15	56.6	56.6	56.6	84	51.8	3	7	90	0.00	30.137 
11:20	56.9	56.9	56.9	85	52.4	2	5	68	0.00	30.137 
11:25	57.2	57.2	57.2	84	52.4	1	4	90	0.00	30.137 
11:30	57.3	57.3	57.3	83	52.2	2	6	90	0.00	30.139 
11:35	57.5	57.5	57.5	83	52.4	2	5	90	0.00	30.139 
11:40	57.6	57.6	57.6	83	52.5	2	5	90	0.00	30.139 
11:45	58.0	58.0	58.0	83	52.9	1	4	112	0.00	30.129 
11:50	58.3	58.3	58.3	81	52.5	2	5	90	0.00	30.129 
11:55	58.9	58.9	58.9	81	53.1	2	6	90	0.00	30.129 
12:00	59.2	59.2	59.2	78	52.3	2	6	90	0.00	30.126 
12:05	59.3	59.3	59.3	79	52.8	1	5	90	0.00	30.126 
12:10	59.6	59.6	59.6	79	53.1	1	4	68	0.00	30.126 
12:15	60.2	60.2	60.2	78	53.3	1	4	68	0.00	30.124 
12:20	60.5	60.5	60.5	77	53.2	1	3	68	0.00	30.124 
12:25	60.9	60.9	60.9	76	53.3	2	5	68	0.00	30.124 
12:30	61.2	61.2	61.2	76	53.6	2	7	90	0.00	30.121 
12:35	61.6	61.6	61.6	75	53.6	1	3	90	0.00	30.121 
12:40	61.8	61.8	61.8	75	53.8	2	6	112	0.00	30.121 
12:45	62.1	62.1	62.1	76	54.4	2	5	90	0.00	30.120 
12:50	62.3	62.3	62.3	74	53.9	1	5	90	0.00	30.120 
12:55	62.1	62.1	62.1	74	53.7	2	5	90	0.00	30.120 
13:00	62.4	62.4	62.4	73	53.6	2	6	90	0.00	30.121 
13:05	62.6	62.6	62.6	74	54.2	2	6	90	0.00	30.121 
13:10	62.9	62.9	62.9	73	54.1	2	6	90	0.00	30.121 
13:15	63.2	63.2	63.2	73	54.4	1	3	90	0.00	30.117 
13:20	63.5	63.5	63.5	74	55.1	1	8	90	0.00	30.117 
13:25	63.9	63.9	63.9	72	54.7	1	5	90	0.00	30.117 
13:30	64.2	64.2	64.2	73	55.4	1	4	90	0.00	30.114 
13:35	64.5	64.5	64.5	71	54.9	1	4	68	0.00	30.114 
13:40	64.8	64.8	64.8	72	55.6	2	6	112	0.00	30.114 
13:45	65.2	65.2	65.2	71	55.6	1	5	45	0.00	30.107 
13:50	65.2	65.2	65.2	70	55.2	1	4	22	0.00	30.107 
13:55	65.3	65.3	65.3	71	55.6	0	2	68	0.00	30.107 
14:00	65.5	65.5	65.5	70	55.4	1	3	90	0.00	30.107 
14:05	65.6	65.6	65.6	71	55.9	2	6	90	0.00	30.107 
14:10	65.6	65.6	65.6	70	55.5	1	6	90	0.00	30.107 
14:15	65.8	65.8	65.8	70	55.7	1	5	112	0.00	30.102 
14:20	66.1	66.1	66.1	70	56.0	1	3	90	0.00	30.102 
14:25	66.4	66.4	66.4	70	56.3	1	4	90	0.00	30.102 
14:30	66.6	66.6	66.6	69	56.1	1	4	90	0.00	30.097 
14:35	66.8	66.8	66.8	70	56.7	1	5	90	0.00	30.097 
14:40	66.9	66.9	66.9	69	56.4	1	4	90	0.00	30.097 
14:45	66.9	66.9	66.9	67	55.6	0	3	90	0.00	30.093 
14:50	67.1	67.1	67.1	69	56.6	0	1	90	0.00	30.093 
14:55	67.6	67.6	67.6	68	56.7	0	3	90	0.00	30.093 
15:00	67.6	67.6	67.6	66	55.8	1	4	90	0.00	30.087 
15:05	67.6	67.6	67.6	67	56.2	2	5	112	0.00	30.087 
15:10	67.6	67.6	67.6	67	56.2	1	4	112	0.00	30.087 
15:15	67.8	67.8	67.8	66	56.0	2	6	112	0.00	30.082 
15:20	67.8	67.8	67.8	67	56.4	1	3	90	0.00	30.082 
15:25	67.8	67.8	67.8	66	56.0	1	4	90	0.00	30.082 
15:30	67.8	67.8	67.8	67	56.4	1	4	90	0.00	30.075 
15:35	67.9	67.9	67.9	67	56.5	1	5	90	0.00	30.075 
15:40	68.1	68.1	68.1	65	55.9	1	5	90	0.00	30.075 
15:45	68.4	68.4	68.4	66	56.6	1	4	90	0.00	30.067 
15:50	68.8	68.8	68.8	64	56.1	2	7	90	0.00	30.067 
15:55	68.9	68.9	68.9	64	56.2	3	6	90	0.00	30.067 
16:00	68.9	68.9	68.9	63	55.8	2	5	90	0.00	30.063 
16:05	68.9	68.9	68.9	64	56.2	3	6	90	0.00	30.063 
16:10	68.9	68.9	68.9	64	56.2	1	5	90	0.00	30.063 
16:15	68.8	68.8	68.8	65	56.5	0	3	90	0.00	30.061 
16:20	68.9	68.9	68.9	64	56.2	1	5	90	0.00	30.061 
16:25	68.9	68.9	68.9	64	56.2	2	4	90	0.00	30.061 
16:30	69.1	69.1	69.1	64	56.4	2	6	90	0.00	30.066 
16:35	69.1	69.1	69.1	65	56.8	2	6	112	0.00	30.066 
16:40	69.1	69.1	69.1	65	56.8	1	5	90	0.00	30.066 
16:45	69.1	69.1	69.1	65	56.8	2	7	90	0.00	30.062 
16:50	68.9	68.9	68.9	65	56.6	2	5	90	0.00	30.062 
16:55	68.8	68.8	68.8	66	57.0	1	5	90	0.00	30.062 
17:00	68.6	68.6	68.6	66	56.8	2	6	90	0.00	30.068 
17:05	68.4	68.4	68.4	66	56.6	1	4	90	0.00	30.068 
17:10	68.4	68.4	68.4	67	57.0	1	4	158	0.00	30.068 
17:15	68.3	68.3	68.3	68	57.3	1	4	90	0.00	30.067 
17:20	68.1	68.1	68.1	67	56.7	1	4	90	0.00	30.067 
17:25	67.8	67.8	67.8	68	56.8	1	4	90	0.00	30.067 
17:30	67.6	67.6	67.6	69	57.1	0	3	90	0.00	30.067 
17:35	67.4	67.4	67.4	69	56.9	0	2	90	0.00	30.067 
17:40	67.3	67.3	67.3	70	57.2	1	3	90	0.00	30.067 
17:45	67.1	67.1	67.1	69	56.6	1	3	45	0.00	30.072 
17:50	66.9	66.9	66.9	69	56.4	1	6	90	0.00	30.072 
17:55	66.9	66.9	66.9	70	56.8	1	5	90	0.00	30.072 
18:00	66.9	66.9	66.9	69	56.4	1	4	90	0.00	30.083 
18:05	66.9	66.9	66.9	69	56.4	1	3	112	0.00	30.083 
18:10	66.8	66.8	66.8	69	56.3	1	5	112	0.00	30.083 
18:15	66.6	66.6	66.6	70	56.5	1	3	112	0.00	30.082 
18:20	66.3	66.3	66.3	70	56.2	1	5	112	0.00	30.082 
18:25	66.1	66.1	66.1	70	56.0	1	4	112	0.00	30.082 
18:30	65.8	65.8	65.8	71	56.1	1	5	90	0.00	30.085 
18:35	65.5	65.5	65.5	72	56.2	1	4	90	0.00	30.085 
18:40	65.0	65.0	65.0	73	56.1	1	4	112	0.00	30.085 
18:45	64.7	64.7	64.7	74	56.2	1	6	202	0.00	30.089 
18:50	64.3	64.3	64.3	75	56.2	0	2	112	0.00	30.089 
18:55	63.9	63.9	63.9	75	55.8	1	5	45	0.00	30.089 
19:00	63.4	63.4	63.4	76	55.7	0	3	135	0.00	30.094 
19:05	63.1	63.1	63.1	77	55.8	0	7	90	0.00	30.094 
19:10	62.6	62.6	62.6	77	55.3	0	2	90	0.00	30.094 
19:15	62.3	62.3	62.3	78	55.3	1	4	135	0.00	30.105 
19:20	61.8	61.8	61.8	79	55.2	1	5	135	0.00	30.105 
19:25	61.5	61.5	61.5	79	54.9	1	5	135	0.00	30.105 
19:30	61.2	61.2	61.2	80	55.0	1	5	68	0.00	30.105 
19:35	60.9	60.9	60.9	81	55.0	1	6	68	0.00	30.105 
19:40	60.7	60.7	60.7	81	54.8	1	4	112	0.00	30.105 
19:45	60.4	60.4	60.4	82	54.9	0	4	112	0.00	30.109 
19:50	60.2	60.2	60.2	82	54.7	0	4	112	0.00	30.109 
19:55	59.9	59.9	59.9	83	54.7	2	8	90	0.00	30.109 
20:00	59.8	59.8	59.8	83	54.6	1	4	90	0.00	30.110 
20:05	59.6	59.6	59.6	84	54.8	0	2	112	0.00	30.110 
20:10	59.5	59.5	59.5	84	54.7	0	2	112	0.00	30.110 
20:15	59.3	59.3	59.3	84	54.5	1	3	112	0.00	30.116 
20:20	59.2	59.2	59.2	85	54.7	1	4	90	0.00	30.116 
20:25	59.0	59.0	59.0	85	54.5	0	3	90	0.00	30.116 
20:30	58.9	58.9	58.9	85	54.4	0	2	90	0.00	30.121 
20:35	58.6	58.6	58.6	85	54.1	0	3	90	0.00	30.121 
20:40	58.4	58.4	58.4	86	54.2	1	3	90	0.00	30.121 
20:45	58.3	58.3	58.3	86	54.1	0	3	90	0.00	30.123 
20:50	58.3	58.3	58.3	86	54.1	0	2	90	0.00	30.123 
20:55	58.1	58.1	58.1	87	54.2	0	4	90	0.00	30.123 
21:00	58.0	58.0	58.0	87	54.1	0	3	90	0.00	30.123 
21:05	58.0	58.0	58.0	87	54.1	1	5	90	0.00	30.123 
21:10	57.8	57.8	57.8	87	54.0	1	5	68	0.00	30.123 
21:15	57.8	57.8	57.8	87	54.0	1	3	90	0.00	30.122 
21:20	57.8	57.8	57.8	88	54.3	0	3	68	0.00	30.122 
21:25	57.8	57.8	57.8	88	54.3	0	2	68	0.00	30.122 
21:30	57.6	57.6	57.6	88	54.1	0	3	90	0.00	30.126 
21:35	57.6	57.6	57.6	88	54.1	0	1	90	0.00	30.126 
21:40	57.6	57.6	57.6	88	54.1	0	4	90	0.00	30.126 
21:45	57.6	57.6	57.6	88	54.1	0	5	112	0.00	30.131 
21:50	57.6	57.6	57.6	88	54.1	0	3	112	0.00	30.131 
21:55	57.6	57.6	57.6	88	54.1	0	3	112	0.00	30.131 
22:00	57.6	57.6	57.6	88	54.1	0	3	112	0.00	30.134 
22:05	57.5	57.5	57.5	88	54.0	1	4	112	0.00	30.134 
22:10	57.5	57.5	57.5	88	54.0	0	2	112	0.00	30.134 
22:15	57.3	57.3	57.3	88	53.8	0	3	112	0.00	30.131 
22:20	57.3	57.3	57.3	88	53.8	0	2	112	0.00	30.131 
22:25	57.2	57.2	57.2	89	54.0	0	3	112	0.00	30.131 
22:30	57.2	57.2	57.2	89	54.0	1	3	112	0.00	30.129 
22:35	57.0	57.0	57.0	89	53.8	0	3	112	0.00	30.129 
22:40	57.0	57.0	57.0	89	53.8	0	3	112	0.00	30.129 
22:45	57.0	57.0	57.0	89	53.8	0	3	112	0.00	30.130 
22:50	56.9	56.9	56.9	89	53.7	0	2	112	0.00	30.130 
22:55	56.9	56.9	56.9	89	53.7	1	3	112	0.00	30.130 
23:00	57.0	57.0	57.0	90	54.1	1	5	112	0.00	30.125 
23:05	57.0	57.0	57.0	90	54.1	1	4	112	0.00	30.125 
23:10	57.0	57.0	57.0	90	54.1	0	2	112	0.00	30.125 
23:15	57.2	57.2	57.2	90	54.3	0	4	112	0.00	30.125 
23:20	57.2	57.2	57.2	90	54.3	1	7	112	0.00	30.125 
23:25	57.3	57.3	57.3	89	54.1	1	3	90	0.00	30.125 
23:30	57.5	57.5	57.5	89	54.3	0	3	90	0.00	30.132 
23:35	57.5	57.5	57.5	89	54.3	1	4	90	0.00	30.132 
23:40	57.5	57.5	57.5	89	54.3	1	4	90	0.00	30.132 
23:45	57.6	57.6	57.6	89	54.4	1	3	90	0.00	30.130 
23:50	57.6	57.6	57.6	89	54.4	1	4	90	0.00	30.130 
23:55	57.6	57.6	57.6	89	54.4	1	5	90	0.00	30.130 

CoCoRaHS
IN-AL-39
A2 Web Hosting
Creative Commons License
GoDaddy
search engine by freefind advanced

loaded 2018-11-15 05:08:49 • last modified 2010-11-18 10:43:29
Privacy PolicyDisclaimer
• wx.awcolley.com is powered by PmWiki v.2002016 •
• all content (unless otherwise noted) © 2018 A W Colley